Regional Weather Roundup
Issued by NWS

Home | Current Version | Previous Version | Graphics & Text | Print | Product List | Glossary On
Versions: 1 2 3 4 5 6 7 8 9 10 11 12 13 14 15 16 17 18 19 20 21 22 23 24 25 26 27 28
000
ASUS45 KBOI 242310
RWRID
WEATHER ROUNDUP FOR IDAHO
NATIONAL WEATHER SERVICE BOISE ID
500 PM MDT FRI OCT 24 2014

NOTE: "FAIR" INDICATES FEW OR NO CLOUDS BELOW 12000 FEET
WITH NO SIGNIFICANT WEATHER AND/OR OBSTRUCTIONS TO VISIBILITY

IDZ012-014-250000-
SOUTHWEST IDAHO


CITY           SKY/WX    TMP DP  RH WIND       PRES   REMARKS
BOISE          SUNNY     66  50  56 NW9       29.98F
CALDWELL       SUNNY     63  46  55 N5        30.01F
MOUNTAIN HOME  SUNNY     71  41  33 VRB2      29.97F
$$

IDZ016-017-250000-
SOUTHCENTRAL IDAHO


CITY           SKY/WX    TMP DP  RH WIND       PRES   REMARKS
BURLEY         SUNNY     74  34  23 N7        30.02F
JEROME         SUNNY     74  28  18 N9        30.03S
TWIN FALLS     SUNNY     75  34  22 NE7       30.03S
$$

IDZ019>023-250000-
SOUTHEAST IDAHO


CITY           SKY/WX    TMP DP  RH WIND       PRES   REMARKS
IDAHO FALLS    SUNNY     70  31  23 SW13      30.09F
POCATELLO      SUNNY     74  28  18 S14G22    30.07F
REXBURG        SUNNY     68  29  23 SW15G23   30.09F
$$

IDZ006-010-011-018-031-032-250000-
CENTRAL IDAHO MOUNTAINS


CITY           SKY/WX    TMP DP  RH WIND       PRES   REMARKS
MCCALL         CLOUDY    49  44  83 VRB3      30.06S
HAILEY         SUNNY     66  30  26 CALM      30.12S
STANLEY          N/A     59  24  26 S6G18     30.13R
SALMON         CLOUDY    50  43  76 CALM      30.07F
CHALLIS        PTSUNNY   59  41  51 CALM      30.07S
$$

IDZ002-004-006-007-026-250000-
NORTHERN IDAHO


CITY           SKY/WX    TMP DP  RH WIND       PRES   REMARKS
LEWISTON       LGT RAIN  57  50  77 E5        30.03S
LOWELL           N/A     52  51  97 CALM      30.07S
COEUR D`ALENE  CLOUDY    55  39  54 CALM      30.05S
MULLAN PASS    CLOUDY    37  35  92 CALM      30.09R
$$



USA.gov is the U.S. government's official web portal to all federal, state and local government web resources and services.